Change the Weather History Date:

Wednesday, February 19, 2014

  Actual Average Record
Temperature  
Mean Temperature 78 °F 72 °F  
Max Temperature 82 °F 77 °F 83 °F (2012)
Min Temperature 73 °F 67 °F 50 °F (2007)
Degree Days  
Heating Degree Days 0 1  
Month to date heating degree days 1 15  
Since 1 July heating degree days 35 74  
Cooling Degree Days 13 8  
Month to date cooling degree days 207 129  
Year to date cooling degree days 391 310  
Growing Degree Days 28 (Base 50)    
Moisture  
Dew Point 64 °F    
Average Humidity 67    
Maximum Humidity 79    
Minimum Humidity 55    
Precipitation  
Precipitation 0.00 in 0.08 in 0.43 in (2013)
Month to date precipitation 0.31 1.50  
Year to date precipitation 3.60 3.11  
Snow  
Snow 0.00 in - - ()
Month to date snowfall 0.0  
Since 1 July snowfall 0.0  
Snow Depth 0.00 in    
Sea Level Pressure  
Sea Level Pressure 30.11 in    
Wind  
Wind Speed 8 mph (ESE)    
Max Wind Speed 14 mph    
Max Gust Speed 19 mph    
Visibility 10 miles    
Events      
T = Trace of Precipitation, MM = Missing Value Source: NWS Daily Summary

Daily Weather History Graph

Daily Weather History Graph

Search for Another Location

Airport or City:

Trip Planner

Search our weather history database for the weather conditions in past years. The results will help you decide how hot, cold, wet, or windy it might be!

Date:

Astronomy

Feb. 19, 2014 Rise Set
Actual Time 6:55 AM EST 6:21 PM EST
Civil Twilight 6:32 AM EST 6:44 PM EST
Nautical Twilight 6:05 AM EST 7:11 PM EST
Astronomical Twilight 5:38 AM EST 7:37 PM EST
Moon 10:37 PM EST (2/19) 9:32 AM EST (2/19)
Length of Visible Light 12h 12m
Length of Day
11h 25m
Waning Gibbous, 80% of the Moon is Illuminated
Feb 19
Waning Gibbous
Feb 22
Last Quarter
Mar 1
New
Mar 8
First Quarter
Mar 16
Full

Hourly Weather History & Observations

Time (EST) Temp. Heat Index Dew Point Humidity Pressure Visibility Wind Dir Wind Speed Gust Speed Precip Events Conditions
12:53 AM 73.9 °F - 63.0 °F 68% 30.13 in 10.0 mi East 9.2 mph - N/A   Clear
1:53 AM 73.9 °F - 63.0 °F 68% 30.11 in 10.0 mi East 9.2 mph - N/A   Scattered Clouds
2:53 AM 73.9 °F - 62.1 °F 66% 30.10 in 10.0 mi East 6.9 mph - N/A   Partly Cloudy
3:53 AM 73.0 °F - 62.1 °F 68% 30.09 in 10.0 mi ESE 9.2 mph 18.4 mph N/A   Partly Cloudy
4:53 AM 73.0 °F - 63.0 °F 71% 30.08 in 10.0 mi ESE 10.4 mph 18.4 mph N/A   Partly Cloudy
5:53 AM 73.0 °F - 63.0 °F 71% 30.10 in 10.0 mi East 6.9 mph - N/A   Scattered Clouds
6:53 AM 73.0 °F - 62.1 °F 68% 30.12 in 10.0 mi East 4.6 mph - N/A   Scattered Clouds
7:53 AM 75.0 °F - 64.0 °F 69% 30.14 in 10.0 mi ESE 5.8 mph - N/A   Mostly Cloudy
8:53 AM 77.0 °F - 64.0 °F 64% 30.15 in 10.0 mi East 9.2 mph - N/A   Partly Cloudy
9:53 AM 78.1 °F - 63.0 °F 60% 30.15 in 10.0 mi ESE 10.4 mph - N/A   Partly Cloudy
10:53 AM 80.1 °F 81.7 °F 64.0 °F 58% 30.15 in 10.0 mi ESE 8.1 mph - N/A   Partly Cloudy
11:53 AM 81.0 °F 82.7 °F 64.9 °F 58% 30.14 in 10.0 mi East 6.9 mph - N/A   Clear
12:53 PM 81.0 °F 82.5 °F 64.0 °F 56% 30.12 in 10.0 mi ESE 8.1 mph 17.3 mph N/A   Clear
1:53 PM 82.0 °F 83.4 °F 64.0 °F 54% 30.10 in 10.0 mi East 9.2 mph - N/A   Partly Cloudy
2:53 PM 80.1 °F 81.7 °F 64.0 °F 58% 30.08 in 10.0 mi ESE 8.1 mph 18.4 mph N/A   Partly Cloudy
3:53 PM 79.0 °F - 64.0 °F 60% 30.07 in 10.0 mi East 11.5 mph - N/A   Partly Cloudy
4:53 PM 78.1 °F - 64.0 °F 62% 30.07 in 10.0 mi East 9.2 mph 18.4 mph N/A   Clear
5:53 PM 75.9 °F - 64.9 °F 69% 30.08 in 10.0 mi ESE 9.2 mph - N/A   Clear
6:53 PM 75.0 °F - 66.0 °F 73% 30.08 in 10.0 mi ESE 8.1 mph - N/A   Partly Cloudy
7:53 PM 75.9 °F - 66.0 °F 71% 30.09 in 10.0 mi ESE 8.1 mph - N/A   Scattered Clouds
8:53 PM 75.0 °F - 66.9 °F 76% 30.10 in 10.0 mi East 6.9 mph - N/A   Clear
9:53 PM 75.0 °F - 66.9 °F 76% 30.11 in 10.0 mi East 8.1 mph - N/A   Clear
10:53 PM 75.0 °F - 68.0 °F 79% 30.12 in 10.0 mi East 6.9 mph - N/A   Clear
11:53 PM 75.0 °F - 68.0 °F 79% 30.11 in 10.0 mi East 6.9 mph - N/A   Partly Cloudy